Regional Weather Roundup
Issued by NWS Charleston, SC

Current Version | Previous Version | Text Only | Print | Product List | Glossary Off
Versions: 1 2 3 4 5 6 7 8 9 10 11 12 13 14 15 16 17 18 19 20 21 22 23 24 25 26 27 28 29 30 31 32 33 34 35 36 37 38 39 40 41 42 43 44 45 46 47 48 49 50

000
ASUS42 KCHS 312212
RWRCHS

REGIONAL WEATHER ROUNDUP
NATIONAL WEATHER SERVICE CHARLESTON SC
600 PM EDT MON AUG 31 2015

NOTE: "FAIR" INDICATES FEW OR NO CLOUDS BELOW 12,000 FEET WITH NO
SIGNIFICANT WEATHER AND/OR OBSTRUCTIONS TO VISIBILITY.

NOT ALL STATIONS ARE QUALITY CONTROLLED BY THE NATIONAL
WEATHER SERVICE. USE DATA WITH CAUTION...ESPECIALLY
DEWPOINT OBSERVATIONS.

SCZ027-030-031-034>040-042>050-312300-
...SOUTHEAST SOUTH CAROLINA...

CITY           SKY/WX    TMP DP  RH WIND       PRES   REMARKS
N CHARLESTON   MOSUNNY   86  73  65 NW7       30.02F HX  93
WATERFRONT PRK   N/A     87  75  67 VRB3      30.00S HX  96
MOUNT PLEASANT LGT RAIN  86  73  66 NW6       30.02F HX  93
JOHNS ISLAND   MOCLDY    86  77  74 SW7       30.02F HX  97
PINOPOLIS        N/A     88  73  62 NW5       29.97S HX  96
MONCKS CORNER  FAIR      84  72  65 CALM      30.03S
SUMMERVILLE    FAIR      86  73  66 NW7       30.04S HX  93
BEAUFORT MCAS  PTSUNNY   83  72  69 W6        30.04F
BEAUFORT ARPT  MOCLDY    84  73  70 CALM      30.03F HX  91
HILTON HEAD IS PTSUNNY   82  73  74 CALM      30.05S
WALTERBORO     PTCLDY    86  70  58 NW3       30.05S HX  90
ALLENDALE      FAIR      82  70  65 CALM      30.05S

...SOUTHERN MIDLANDS AND PEE DEE...

CITY           SKY/WX    TMP DP  RH WIND       PRES   REMARKS
GEORGETOWN     NOT AVBL
KINGSTREE      NOT AVBL
ORANGEBURG     SUNNY     83  70  64 CALM      30.04S
BARNWELL       FAIR      84  72  65 W6        30.06R
AIKEN          FAIR      82  64  54 W6        30.09S
MANNING        MOCLDY    82  68  61 CALM      30.03S
COLUMBIA       MOSUNNY   89  67  47 W5        30.03S HX  92
SUMTER         SUNNY     86  69  56 W1        30.02R
FLORENCE       SUNNY     84  70  62 N9        30.04R
MYRTLE BEACH   PTSUNNY   81  73  78 CALM      30.03F
N MYRTLE BEACH PTSUNNY   80  75  84 NE5       30.02F

$$

GAZ063-065-086>088-099>101-113>116-118-119-134>141-150-312300-
...SOUTHEAST GEORGIA...

CITY           SKY/WX    TMP DP  RH WIND       PRES   REMARKS
SAVANNAH ARPT  PTSUNNY   84  71  65 CALM      30.05S
HUNTER AAF     SUNNY     86  76  71 NW3       30.02S HX  96
FORT STEWART   MOSUNNY   87  72  61 N7        30.03R HX  94
STATESBORO     PTSUNNY   82  75  80 CALM      30.06R
SYLVANIA       CLOUDY    83  75  76 CALM      30.06S HX  91
CLAXTON        NOT AVBL

...CSRA...CENTRAL AND FAR SOUTHEAST GEORGIA...

CITY           SKY/WX    TMP DP  RH WIND       PRES   REMARKS
THOMSON        MOSUNNY   84  72  67 CALM      30.11S HX  90
AUGUSTA-BUSH   MOSUNNY   84  68  58 CALM      30.04F
AUGUSTA-DANIEL CLOUDY    96  68  39 W5        30.07S HX 101
SWAINSBORO     FAIR      82  68  61 CALM      30.07S
VIDALIA        SUNNY     82  70  65 E5        30.06S
EASTMAN        FAIR      87  71  58 NE7       30.07S HX  93
HAZLEHURST     FAIR      87  72  60 CALM      30.04S HX  93
ALMA           SUNNY     89  67  47 VRB5      30.04S HX  92
WAYCROSS       SUNNY     91  74  57 CALM      30.03S HX  99
JESUP          FAIR      90  73  58 NE5       30.04R HX  98
BAXLEY         FAIR      88  72  58 N8        30.04S HX  94
BRUNSWICK      PTSUNNY   82  75  78 E8        30.05R
SAINT SIMONS   SUNNY     84  75  74 E10       30.04S HX  92

$$

SCZ027-028-034-036>038-045-046-048>050-GAZ119-141-312300-
...LAKE AND SUPPLEMENTAL COASTAL OBSERVATIONS...

STATION/POSITION TIME  TEMP    WIND        PRES    WAVE   SWELL
                       AIR SEA DIR/SP/G            HT/PER HT/PER/DIR
                 (UTC) (F)     (DEG/KT/KT) (MB)    (FT/S) (FT/S/D)
UPR LAKE MARION  NOT AVBL
WINYAH BAY       2045   80     290/  8     1016.0
LAKE MURRAY      2100   84     190/  8/  9 1016.6F
ACE BASIN NERRS  NOT AVBL
FORT PULASKI     2100   83 83  290/  8/  9 1017.7F
SAPELO ISLAND    2100   87      90/  5     1017.0S

$$

ANZ835-935-AMZ111-154-330-350-352-354-370-450-454-472-312300-
...C-MAN AND BUOY OBSERVATIONS...

STATION/POSITION TIME  TEMP    WIND        PRES    WAVE   SWELL
                       AIR SEA DIR/SP/G            HT/PER HT/PER/DIR
                 (UTC) (F)     (DEG/KT/KT) (MB)    (FT/S) (FT/S/D)
BUOY 41004       2150   81 83  270/  8/ 10 1016.5R   4/ 9   3/ 9
BUOY 41008       2150   82 86  110/  6/  8 1017.8R   3/ 9   3/130/ 9
FOLLY BEACH CMAN 2100   82     170/  7/  8 1017.1R
CAPERS NEARSHORE 2108   84     220/  4/  8 1016.8S
FRIPP NEARSHORE  2100   85     190/  2/  4 1017.2R


STATION/POSITION TIME  TEMP    WIND        PRES    WAVE   SWELL
                       AIR SEA DIR/SP/G            HT/PER HT/PER/DIR
                 (UTC) (F)     (DEG/KT/KT) (MB)    (FT/S) (FT/S/D)
5E ST. MARYS GA  2121      87                N/A     3/ 9
FRYING PAN BUOY  2150   82 81  200/ 14/ 16 1016.8F   4/ 5   2/100/ 9
BUOY 41025       2150   79 84  140/  8/ 10 1018.8F   4/ 9   3/130/ 9
CAPE LOOKOUT NC  2100   75     150/  6/  7 1018.2S
BUOY 41002       2150   85 84  200/ 14/ 17 1018.6F   4/ 7   3/180/ 7
BUOY 41010       2120   85 86  160/  8/  8 1018.1R
ST AUGUSTINE FL  2200   82 85  110/ 11/ 12 1017.9F


$$



USA.gov is the U.S. government's official web portal to all federal, state and local government web resources and services.